Tracking 32579 objects as of 16-Dec-2025
HD Live streaming from Space Station
objects crossing your sky now

TITAN 3C TRANSTAGE DEB

Track TITAN 3C TRANSTAGE DEB now!
10-day predictions


NORAD ID: 1653
Int'l Code: 1965-082Q
Perigee: 657.9 km
Apogee: 715.7 km
Inclination: 32.1 °
Period: 98.3 minutes
Semi major axis: 7057 km
RCS: 0.6097 m2 (medium)
Launch date: October 15, 1965
Source: United States (US)
Launch site: AIR FORCE EASTERN TEST RANGE (AFETR)

Note: This is SATELLITE DEBRIS
Your satellite tracking list
Your tracking list is empty




NASA's NSSDC Master Catalog

Two Line Element Set (TLE):
1 01653U 65082Q   25349.85489458  .00000436  00000-0  72941-4 0  9990
2 01653  32.1170 172.4910 0040901 195.9930 163.9425 14.64193585184611
Source of the keplerian elements: AFSPC